Tracking 18852 objects as of 24-Nov-2017
HD Live streaming from Space Station
objects crossing your sky now

FENGYUN 1C DEB

Track FENGYUN 1C DEB now!
10-day predictions


NORAD ID: 31244
Int'l Code: 1999-025BMA
Perigee: 812.3 km
Apogee: 968.6 km
Inclination: 99.3 °
Period: 102.6 minutes
Semi major axis: 7261 km
RCS: 0.0089 m2 (small)
Launch date: May 10, 1999
Source: People's Republic of China (PRC)
Launch site: Taiyaun Space Center, China (TSC)

Note: This is SATELLITE DEBRIS
aabbcc
Your satellite tracking list
Your tracking list is empty




NASA's NSSDC Master Catalog

Two Line Element Set (TLE):
1 31244U 99025BMA 17319.74896038  .00000456  00000-0  30680-3 0  9990
2 31244  99.2532 307.4440 0107654  51.3437 309.7302 14.03034797544009
Source of the keplerian elements: AFSPC